Regional Weather Roundup
Issued by NWS

Home | Current Version | Previous Version | Graphics & Text | Print | Product List | Glossary On
Versions: 1 2 3 4 5 6 7 8 9 10 11 12 13 14 15 16 17 18 19 20 21 22 23 24 25 26 27 28 29 30 31 32 33 34 35 36 37 38 39 40 41 42 43 44 45 46 47 48 49 50
000
ASUS43 KOAX 221610
RWRNE

WEATHER ROUNDUP FOR NEBRASKA
NATIONAL WEATHER SERVICE OMAHA NE
1100 AM CDT WED MAR 22 2017

NOTES: SATELLITE DATA IS BEING USED TO AUGMENT CLOUD COVER ABOVE
       12000 FEET.
       "FAIR" INDICATES FEW OR NO CLOUDS BELOW 12,000 FEET WITH NO
       SIGNIFICANT WEATHER AND/OR OBSTRUCTIONS TO VISIBILITY.

  * THESE STATIONS DO NOT REPORT WEATHER SUCH AS RAIN...SNOW OR FOG.

NEZ001>004-019>022-054>056-221700-
NEBRASKA PANHANDLE

CITY           SKY/WX    TMP DP  RH WIND       PRES   REMARKS
SCOTTSBLUFF    CLOUDY    48  29  47 S17G23    30.01F
ALLIANCE       CLOUDY    43  33  68 S22G30    30.03F
CHADRON        CLOUDY    48  34  58 S30G36    29.95F
KIMBALL        CLOUDY    42  31  64 S16G23    30.04F
SIDNEY         MOSUNNY   43  33  68 S26G36    30.06F
$$

NEZ057>060-069>072-079>082-221700-
SOUTHWEST NEBRASKA

CITY           SKY/WX    TMP DP  RH WIND       PRES   REMARKS
NORTH PLATTE   CLOUDY    40  24  53 S18G24    30.19F WCI  31
IMPERIAL       MOSUNNY   43  27  53 S20G25    30.16F
LEXINGTON      CLOUDY    40  24  53 SE12      30.25F WCI  33
MCCOOK         CLOUDY    39  25  57 SE14      30.22F WCI  31
OGALLALA       CLOUDY    44  28  52 S21       30.14F
$$

NEZ005>010-023>029-035>040-094-221700-
NORTH CENTRAL NEBRASKA

CITY           SKY/WX    TMP DP  RH WIND       PRES   REMARKS
VALENTINE      CLOUDY    38  28  67 S20G29    30.14F WCI  28
AINSWORTH      CLOUDY    34  30  85 S18G26    30.18F WCI  23
BROKEN BOW     CLOUDY    39  26  59 S18       30.22F WCI  30
O`NEILL        CLOUDY    33  27  80 SE16      30.27F WCI  22
ORD            CLOUDY    37  24  59 S16G24    30.27F WCI  28
THEDFORD       CLOUDY    39  27  61 S22       30.17F WCI  28
$$

NEZ041-046>049-061>064-073>077-083>087-221700-
SOUTH CENTRAL NEBRASKA

CITY           SKY/WX    TMP DP  RH WIND       PRES   REMARKS
GRAND ISLAND   CLOUDY    39  24  55 SE14      30.31F WCI  31
AURORA         CLOUDY    40  22  49 SE17      30.31F WCI  31
HASTINGS       PTSUNNY   39  23  52 SE16      30.31F WCI  30
HEBRON         CLOUDY    42  22  45 E12G18    30.34F
HOLDREGE       CLOUDY    38  23  54 SE17      30.27F WCI  29
KEARNEY *      CLOUDY    39  21  48 SE18      30.28F WCI  30
YORK           CLOUDY    39  19  45 SE15      30.33F WCI  31
$$

NEZ011>018-030>034-042>045-221700-
NORTHEAST NEBRASKA

CITY           SKY/WX    TMP DP  RH WIND       PRES   REMARKS
NORFOLK        CLOUDY    32  23  69 SE14      30.34F WCI  22
ALBION         CLOUDY    38  23  53 SE15G22   30.32F WCI  30
BLAIR          CLOUDY    35  23  60 E7        30.42R WCI  29
FREMONT        CLOUDY    37  24  60 SE12      30.41F WCI  29
TEKAMAH        CLOUDY    36  22  56 SE12      30.44R WCI  28
WAYNE          CLOUDY    32  26  77 SE15      30.38F WCI  22
$$

NEZ050>053-065>068-078-088>093-221700-
SOUTHEAST NEBRASKA

CITY           SKY/WX    TMP DP  RH WIND       PRES   REMARKS
LINCOLN        CLOUDY    41  19  41 SE12      30.40F
OMAHA EPPLEY   PTSUNNY   36  22  56 SE6       30.44R WCI  31
BEATRICE       SUNNY     44  21  41 SE12G17   30.37F
FALLS CITY     CLOUDY    43  21  41 SE10      30.39S
NEBRASKA CITY  MOSUNNY   40  13  34 E6        30.41R
PLATTSMOUTH    CLOUDY    36  21  55 E8        30.42R WCI  29
$$

NEZ044-045-051>053-067-221700-
OMAHA AREA

CITY           SKY/WX    TMP DP  RH WIND       PRES   REMARKS
OMAHA EPPLEY   PTSUNNY   36  22  56 SE6       30.44R WCI  31
BLAIR          CLOUDY    35  23  60 E7        30.42R WCI  29
FREMONT        CLOUDY    37  24  60 SE12      30.41F WCI  29
MILLARD        CLOUDY    37  24  58 SE8       30.43R WCI  31
OFFUTT AFB     CLOUDY    36  22  56 E6        30.43R WCI  31
PLATTSMOUTH    CLOUDY    36  21  55 E8        30.42R WCI  29
WAHOO          FAIR      37  22  54 SE10G16   30.41F WCI  30
$$



USA.gov is the U.S. government's official web portal to all federal, state and local government web resources and services.